www.pogodaiklimat.ru

Погода и климат >> Архив погоды >> Франция >> Paris Orly Airport


АРХИВ ПОГОДЫ в Paris Orly Airport

Время (UTC), дата Ветер
(напр.,м/с)
 
Видим.   Явления Облачность Т
(С)
Тd
(С)
f
(%)
Тe
(С)
Тes
(С)
Комфортность P
(гПа)
Po
(гПа)
Тmin
(С)
Tmax
(С)
R
(мм)
R24
(мм)
S
(см)
08 18.06 В 2 26 км 1/0
[]
+23.2 +14.7 59 +27 +35 душно 1023.4 1012.9
07 18.06 В 2 35 км 3/0
[]
+21.8 +14.2 62 +25 +30 комфорт 1023.4 1012.9
09 18.06 В 2 25 км 3/1 750 м
[Cu hum Ci fib]
+24.7 +15.1 55 +28 +38 душно 1023.0 1012.6
10 18.06 В 2 35 км 3/1 1050 м
[Cu hum Ci fib]
+25.4 +14.5 51 +28 +41 жарко 1022.6 1012.2
11 18.06 СВ 3 19 км 3/1 1300 м
[Cu hum Ci fib]
+26.6 +14.4 47 +29 +43 жарко 1022.2 1011.8
12 18.06 В 3 35 км 1/0
[]
+27.8 +14.1 43 +30 +46 жарко 1021.7 1011.4
14 18.06 В 3 35 км ясно +28.9 +13.9 40 +31 +43 жарко 1020.4 1010.1
13 18.06 СВ 3 18 км ясно +28.5 +13.6 40 +30 +44 жарко 1021.1 1010.8
15 18.06 В 3 35 км ясно +29.3 +14.3 40 +31 +40 жарко 1019.8 1009.6
16 18.06 В 3 20 км ясно +29.1 +13.7 39 +31 +37 жарко 1019.6 1009.4
17 18.06 В 3 21 км ясно +28.7 +14.1 41 +31 +34 жарко 1019.6 1009.3
18 18.06 В 3 25 км ясно +27.8 +14.4 44 +30 +32 жарко 1019.4 1009.1 +20.2 +29.5
20 18.06 В 2 50 км ясно +25.4 +14.8 52 +28 +28 жарко 1019.6 1009.2
19 18.06 В 3 29 км ясно +26.9 +14.6 47 +29 +30 жарко 1019.3 1009.0
21 18.06 В 1 40 км ясно +24.2 +14.9 56 +27 +27 жарко 1020.0 1009.6
22 18.06 СВ 2 35 км ясно +22.2 +14.6 62 +26 +26 душно 1020.1 1009.6
23 18.06 В 1 35 км ясно +21.8 +14.4 63 +25 +25 комфорт 1019.7 1009.2
00 19.06 В 2 35 км ясно +21.6 +13.2 59 +24 +24 комфорт 1019.6 1009.1
02 19.06 В 1 35 км ясно +20.3 +12.3 60 +23 +23 комфорт 1019.0 1008.5
01 19.06 штиль 0 27 км ясно +21.5 +12.6 57 +24 +24 комфорт 1019.2 1008.7
03 19.06 С 1 35 км ясно +18.9 +12.2 65 +21 +21 комфорт 1019.0 1008.4
04 19.06 С 1 35 км ясно +16.5 +11.2 71 +18 +18 тепло 1019.2 1008.5
05 19.06 СВ 1 29 км н/о +19.6 +12.1 62 +22 +22 комфорт 1019.2 1008.6
06 19.06 В 2 35 км ясно +21.4 +12.0 55 +24 +26 комфорт 1019.1 1008.6 +16.2 +27.8
08 19.06 В 1 35 км ясно +24.6 +12.5 47 +26 +37 жарко 1018.7 1008.3
07 19.06 В 2 35 км ясно +22.2 +12.4 54 +25 +30 комфорт 1019.1 1008.6
09 19.06 СВ 2 35 км ясно +26.3 +12.7 43 +28 +41 жарко 1018.4 1008.1
10 19.06 В 2 35 км ясно +27.8 +12.6 39 +29 +46 жарко 1018.0 1007.7
11 19.06 ЮВ 1 35 км ясно +29.3 +13.1 37 +31 +51 опасность
солнечного
удара
1017.6 1007.4
12 19.06 В 2 35 км ясно +30.9 +12.8 33 +32 +51 опасность
солнечного
удара
1017.1 1006.9
14 19.06 В 1 35 км 4/0
[]
+32.2 +10.3 26 +32 +45 жарко 1016.1 1006.0
13 19.06 В 1 35 км ясно +31.5 +10.8 28 +31 +51 опасность
солнечного
удара
1016.5 1006.4
15 19.06 СВ 1 30 км 4/0
[]
+32.5 +10.5 26 +32 +42 жарко 1015.8 1005.7
16 19.06 В 1 45 км 4/0
[]
+32.6 +11.2 27 +32 +40 жарко 1015.4 1005.3
17 19.06 В 1 27 км 3/0
[]
+32.2 +11.9 29 +32 +37 жарко 1015.2 1005.1
18 19.06 ЮВ 1 35 км ясно +31.9 +11.7 29 +32 +34 жарко 1015.3 1005.2 +21.4 +33.4
20 19.06 В 1 50 км ясно +27.9 +11.9 37 +29 +29 жарко 1015.4 1005.2
19 19.06 В 1 45 км ясно +30.2 +12.1 33 +31 +31 жарко 1015.3 1005.1
21 19.06 В 1 55 км ясно +25.7 +12.5 44 +27 +27 жарко 1015.8 1005.5
22 19.06 штиль 0 35 км ясно +22.9 +12.2 51 +26 +26 жарко 1016.2 1005.8
23 19.06 штиль 0 9000 м ясно +21.2 +12.3 57 +23 +23 комфорт 1016.5 1006.0
00 20.06 штиль 0 24 км ясно +19.0 +12.3 65 +20 +20 тепло 1016.4 1005.8
02 20.06 З 1 30 км ясно +18.0 +12.4 70 +20 +20 тепло 1016.1 1005.5
01 20.06 З 1 35 км ясно +18.4 +12.6 69 +20 +20 тепло 1016.4 1005.8
03 20.06 штиль 0 30 км 1/0
[]
+17.4 +12.5 73 +17 +17 тепло 1015.8 1005.2
04 20.06 З 1 35 км 3/0
[Ac trans Ci fib]
+17.1 +12.0 72 +19 +19 тепло 1016.0 1005.4
05 20.06 штиль 0 35 км 3/1
[Sc Ci fib]
+21.5 +14.2 63 +24 +25 комфорт 1016.1 1005.6
06 20.06 Ю 1 35 км 3/0
[Ac trans Ci fib]
+23.8 +15.0 58 +27 +29 жарко 1016.3 1005.9 +17.0 +31.9
08 20.06 ЮВ 1 35 км 3/0
[Ac trans Ci fib]
+27.5 +14.2 44 +30 +40 жарко 1016.4 1006.1
07 20.06 СВ 1 19 км 3/0
[Ac trans Ci fib]
+25.9 +14.0 48 +28 +34 жарко 1016.3 1006.0
09 20.06 СВ 1-2
{2}
35 км 1/0
[]
+30.0 +13.3 36 +31 +45 жарко 1016.2 1006.0
10 20.06 В 1 19 км 3/0
[]
+31.9 +14.1 34 +33 +49 жарко 1016.0 1005.9
11 20.06 С 1 30 км 3/0
[]
+32.7 +13.8 32 +34 +51 опасность
солнечного
удара
1015.8 1005.7
12 20.06 СВ 2 30 км 6/0
[]
+33.9 +13.9 30 +35 +49 очень
жарко
1015.3 1005.3
14 20.06 С 1 35 км 9/0
[Ac trans Ci fib]
+34.7 +13.5 28 +35 +47 очень
жарко
1014.7 1004.7
13 20.06 СВ 2 30 км 6/0
[]
+35.0 +14.3 29 +36 +49 очень
жарко
1014.9 1004.9
15 20.06 С 1 23 км 9/0
[Ac trans Ci fib]
+33.4 +14.0 31 +35 +44 душно 1014.4 1004.4
16 20.06 С 2 30 км 9/0
[Ac trans Ci fib]
+33.0 +13.6 31 +34 +40 очень
жарко
1014.3 1004.2
17 20.06 В 2 30 км 9/0
[Ac trans Ci fib]
+32.4 +14.1 33 +34 +37 очень
жарко
1014.0 1003.9
18 20.06 СВ 3 35 км 9/0
[Ac trans Ci fib]
+32.1 +13.3 32 +33 +34 жарко 1014.2 1004.1 +23.9 +35.1
20 20.06 СВ 2 35 км 9/0
[Ac trans Ci fib]
+29.1 +12.9 37 +30 +30 жарко 1015.2 1005.0
19 20.06 СВ 3 35 км 9/0
[Ac trans Ci fib]
+30.5 +13.7 36 +32 +32 жарко 1014.8 1004.7
21 20.06 СВ 2 45 км н/о +27.5 +13.4 42 +29 +29 жарко 1015.4 1005.1
22 20.06 СВ 1 40 км 6/0
[]
+26.4 +13.2 44 +28 +28 жарко 1015.4 1005.1
23 20.06 ЮВ 1 35 км 6/0
[]
+25.0 +13.2 48 +27 +27 жарко 1015.9 1005.6
00 21.06 СВ 1 35 км 3/0
[]
+23.0 +13.5 55 +26 +26 жарко 1015.5 1005.1
02 21.06 Ю 1 35 км 1/0
[]
+20.3 +14.0 67 +24 +24 комфорт 1014.9 1004.4
01 21.06 штиль 0 35 км ясно +21.3 +13.7 62 +24 +24 комфорт 1015.0 1004.5
03 21.06 штиль 0 30 км 3/0
[Ac cast Ci fib]
+20.8 +14.7 68 +23 +23 комфорт 1014.7 1004.2
04 21.06 штиль 0 35 км 4/0
[Ac cast Ci fib]
+19.7 +14.1 70 +21 +21 комфорт 1015.1 1004.6
05 21.06 штиль 0 35 км 4/0
[Ac cast Ci fib]
+21.7 +15.1 66 +25 +26 комфорт 1014.9 1004.5
06 21.06 В 1 19 км 4/0
[Ac cast Ci fib]
+24.6 +15.5 57 +28 +30 душно 1014.8 1004.5 +19.5 +32.1
08 21.06 ЮВ 1 35 км 3/0
[]
+28.5 +16.1 47 +32 +40 душно 1014.8 1004.6
07 21.06 В 1 35 км 3/0
[]
+26.0 +15.4 52 +29 +34 душно 1014.9 1004.6
09 21.06 ЮВ 1 19 км 3/0
[]
+30.4 +16.4 43 +34 +46 очень
душно
1014.6 1004.5
10 21.06 ЮВ 2 13 км 3/0
[]
+32.3 +15.8 37 +35 +48 очень
душно
1014.6 1004.5
11 21.06 ЮВ 2 30 км 3/0
[]
+33.7 +16.6 36 +37 +53 опасность
солнечного
удара
1014.3 1004.3
12 21.06 Ю 3
{6}
35 км 3/1 2000 м
[Cu hum Ci fib]
+34.8 +17.1 35 +38 +52 опасность
солнечного
удара
1014.0 1004.0
14 21.06 ЮЗ 1 30 км 3/3 2000 м
[Cu hum Ci fib]
+35.1 +16.9 34 +38 +51 опасность
солнечного
удара
1012.8 1002.8
13 21.06 ЮЗ 2 30 км 3/3 2000 м
[Cu hum Ci fib]
+35.5 +16.8 33 +38 +50 очень
душно
1013.3 1003.3
15 21.06 ЮЗ 2 20 км 3/3 2000 м
[Cu hum Ci fib]
+37.0 +17.6 32 +40 +49 очень
душно
1012.2 1002.3
16 21.06 ЮЗ 2 30 км 3/3 2000 м
[Cu hum Ci fib]
+36.9 +17.0 31 +40 +45 очень
душно
1011.9 1002.0
17 21.06 ЮЗ 2 35 км 3/3 2000 м
[Cu med, cong]
+36.2 +16.4 31 +39 +41 очень
душно
1011.7 1001.8
18 21.06 З 2 26 км н/о +35.1 +14.9 30 +37 +37 очень
душно
1012.0 1002.0 +24.6 +37.1
20 21.06 ЮЗ 1 22 км 3/3 2000 м
[Cb cap]
+29.8 +14.7 40 +32 +32 душно 1012.7 1002.6
19 21.06 ЮЗ 1 27 км 3/3 2000 м
[Cb cap]
+33.0 +14.1 32 +34 +35 очень
жарко
1012.5 1002.5
21 21.06 ЮЗ 1 1700 м ясно +27.1 +15.1 48 +30 +30 душно 1013.1 1002.9
22 21.06 З 1 30 км ясно +26.3 +15.0 50 +29 +29 жарко 1013.2 1002.9
23 21.06 ЮЗ 1 19 км ясно +25.6 +16.4 57 +29 +29 душно 1013.3 1003.0
00 22.06 штиль 0 24 км ясно +24.6 +17.1 63 +28 +28 душно 1012.9 1002.6
02 22.06 Ю 1 35 км ясно +23.2 +17.9 72 +29 +29 душно 1012.8 1002.4
01 22.06 ЮЗ 1 23 км ясно +22.3 +17.0 72 +27 +27 душно 1012.9 1002.5
03 22.06 З 1 35 км ясно +22.0 +17.1 74 +26 +26 душно 1012.6 1002.2
04 22.06 З 1 35 км 3/0
[]
+20.5 +16.9 80 +25 +25 комфорт 1012.7 1002.2
05 22.06 Ю 1 35 км 9/0
[]
+23.3 +18.2 73 +29 +30 душно 1012.8 1002.4
06 22.06 Ю 1 20 км 9/0
[]
+24.8 +18.5 68 +29 +31 душно 1012.7 1002.4 +20.5 +35.1
08 22.06 З 1 18 км 9/0
[]
+28.3 +19.5 59 +34 +40 очень
душно
1013.3 1003.1
07 22.06 ЮЗ 2 12 км 9/0
[]
+26.5 +18.9 63 +32 +34 очень
душно
1013.3 1003.1
09 22.06 Ю 2 20 км 9/0
[]
+30.0 +18.1 49 +35 +42 очень
душно
1013.0 1002.9
10 22.06 ЮЗ 3 20 км 9/0
[]
+32.0 +16.7 40 +35 +43 очень
душно
1013.2 1003.1
11 22.06 ЮЗ 3 16 км 9/0
[]
+32.4 +17.1 40 +36 +45 очень
душно
1013.1 1003.0
12 22.06 З 3 20 км 9/0
[]
+33.4 +15.9 35 +36 +45 очень
душно
1012.9 1002.9
14 22.06 З 3 25 км 9/0
[]
+36.0 +16.7 32 +39 +46 очень
душно
1012.2 1002.3
13 22.06 З 3 25 км 9/0
[]
+34.5 +15.4 32 +36 +44 душно 1012.8 1002.8
15 22.06 З 3 13 км 9/0
[Ac cast Ci sp]
+35.1 +15.4 31 +37 +43 очень
душно
1011.8 1001.8
16 22.06 З 7
{12}
25 км 9/0
[Ac cast Ci sp]
+33.5 +16.4 36 +36 +37 очень
душно
1011.9 1001.9
17 22.06 СЗ 3 25 км 8/0
[Ac cast Ci fib]
+32.1 +19.4 47 +38 +40 очень
душно
1012.0 1002.0
18 22.06 СЗ 3 25 км 8/0
[Ac cast Ci fib]
+28.2 +18.6 56 +33 +34 очень
душно
1013.2 1003.0 +24.9 +36.0
20 22.06 С 3 25 км н/о +23.9 +15.7 60 +27 +27 жарко 1014.8 1004.4
19 22.06 СЗ 3 25 км 6/0
[Ac cast Ci fib]
+25.3 +16.7 59 +29 +29 душно 1014.0 1003.7
21 22.06 С 3 25 км 9/0
[Ac cast Ci fib]
+22.7 +15.3 63 +27 +27 душно 1015.6 1005.2
22 22.06 СЗ 2 25 км 4/0
[Ac trans Ci fib]
+21.7 +14.1 62 +25 +25 комфорт 1016.1 1005.6
23 22.06 С 2 25 км 1/0
[Ac trans]
+20.2 +13.2 64 +23 +23 комфорт 1016.7 1006.2
00 23.06 СЗ 3 25 км 3/0
[Ac trans]
+19.5 +12.7 65 +21 +21 комфорт 1017.1 1006.5
02 23.06 З 2 35 км н/о +18.0 +12.4 70 +19 +19 тепло 1017.6 1007.0
01 23.06 СЗ 1 25 км 6/0
[Ac trans Ci fib]
+18.6 +12.6 68 +20 +20 тепло 1017.4 1006.8
03 23.06 СЗ 2 45 км 8/1 1080 м
[Sc Ci fib]
+16.6 +11.9 74 +17 +17 тепло 1018.3 1007.6
04 23.06 СЗ 2 25 км 8/1 600 м
[Cu Sc Ci fib]
+16.6 +11.9 74 +17 +17 тепло 1018.5 1007.8
05 23.06 З 2 25 км 9/9 600 м
[Cu Sc]
+16.6 +11.9 74 +17 +17 тепло 1018.9 1008.2
06 23.06 З 2 25 км 9/9 300 м
[Sc]
+16.9 +11.8 72 +17 +17 тепло 1019.6 1008.9 +16.3 +28.1
08 23.06 З 3 25 км 9/9 720 м
[Sc]
+18.4 +11.5 64 +19 +20 тепло 1020.3 1009.7
07 23.06 З 2 19 км 9/9 600 м
[Sc]
+17.5 +11.7 69 +18 +18 по сезону 1019.9 1009.2
09 23.06 З 3 30 км 9/9 870 м
[Sc]
+20.4 +11.3 56 +23 +24 комфорт 1020.3 1009.7
10 23.06 З 3 25 км 9/9 900 м
[Sc]
+20.9 +12.1 57 +24 +25 комфорт 1020.2 1009.7
11 23.06 СЗ 2 28 км 8/8 1080 м
[Sc]
+22.6 +11.6 50 +25 +28 комфорт 1020.3 1009.8
12 23.06 СЗ 2 24 км 4/4 1080 м
[Sc]
+23.1 +12.1 50 +26 +37 жарко 1020.5 1010.0
14 23.06 СЗ 2 28 км 3/3 1350 м
[Sc]
+24.6 +11.9 45 +26 +36 жарко 1019.7 1009.3
13 23.06 СЗ 3 28 км 4/4 1230 м
[Sc]
+24.4 +12.4 47 +26 +35 жарко 1020.2 1009.8
15 23.06 СЗ 2 20 км 4/1 1350 м
[Sc Ci ing]
+24.2 +11.5 45 +26 +35 жарко 1019.4 1009.0
16 23.06 СЗ 2 28 км 4/1 1380 м
[Sc Ci fib]
+25.1 +12.3 45 +27 +33 жарко 1019.3 1008.9
17 23.06 З 3 23 км 4/1 1350 м
[Sc Ci fib]
+24.3 +11.9 46 +26 +29 жарко 1019.3 1008.9
18 23.06 СЗ 2 20 км 4/1 1000 м
[Sc Ci fib]
+23.4 +11.4 47 +26 +27 жарко 1019.6 1009.2 +16.9 +25.3
20 23.06 СЗ 2 25 км 1/1 1350 м
[Sc Ci fib]
+19.9 +11.1 57 +22 +22 комфорт 1020.6 1010.0
19 23.06 СЗ 3 25 км 3/1 1350 м
[Sc Ci fib]
+21.4 +11.4 53 +23 +24 комфорт 1019.9 1009.4
21 23.06 СЗ 2 25 км 1/0
[]
+18.8 +11.1 61 +20 +20 тепло 1021.2 1010.6
22 23.06 СЗ 1 55 км ясно +18.0 +10.6 62 +19 +19 тепло 1021.2 1010.5
23 23.06 З 1 25 км ясно +16.3 +10.2 67 +18 +18 тепло 1020.9 1010.2
00 24.06 З 1 45 км н/о +14.2 +9.8 75 +15 +15 по сезону 1020.6 1009.8
02 24.06 ЮЗ 1 25 км 9/9 1500 м
[Sc]
+15.3 +11.5 78 +16 +16 тепло 1020.6 1009.9
01 24.06 З 1 25 км 1/1 1500 м
[Sc]
+13.4 +10.2 81 +14 +14 по сезону 1020.6 1009.8
03 24.06 ЮЗ 1 25 км 9/9 1500 м
[Sc]
+16.5 +11.2 71 +18 +18 тепло 1020.3 1009.6
04 24.06 ЮЗ 1 25 км 9/9 1500 м
[Sc]
+16.6 +10.7 68 +18 +18 тепло 1020.4 1009.7
05 24.06 З 1 35 км 9/9 1500 м
[Sc]
+16.6 +10.4 67 +18 +18 тепло 1020.5 1009.8
06 24.06 ЮЗ 1 35 км 9/9 1000 м
[Sc]
+17.5 +10.1 62 +19 +19 тепло 1020.5 1009.8 +13.4 +23.4
08 24.06 ЮЗ 2 35 км 9/9 1000 м
[Cu Sc]
+19.5 +10.8 57 +21 +22 комфорт 1020.2 1009.6
07 24.06 Ю 2 35 км 9/9 1000 м
[Cu Sc]
+18.5 +10.8 61 +20 +20 тепло 1020.3 1009.7
09 24.06 ЮЗ 3 35 км 8/8 1080 м
[Cu Sc]
+20.8 +11.1 54 +23 +25 комфорт 1019.7 1009.2
10 24.06 ЮЗ 3 35 км 8/8 1200 м
[Cu Sc]
+21.7 +11.4 52 +24 +27 комфорт 1019.3 1008.8
11 24.06 ЮЗ 3 35 км 9/6 1380 м
[]
+22.0 +10.8 49 +24 +28 комфорт 1019.1 1008.6
12 24.06 З 3 35 км 9/9 1380 м
[Cu Sc]
+22.2 +10.7 48 +24 +26 комфорт 1018.8 1008.3
14 24.06 З 2 35 км 9/9 1500 м
[Cu Sc]
+23.9 +10.9 44 +25 +27 комфорт 1017.9 1007.5
13 24.06 З 3 35 км 9/9 1380 м
[Cu Sc]
+22.9 +10.7 46 +25 +26 комфорт 1018.5 1008.0
15 24.06 З 3 35 км 5/5 1500 м
[Sc diur, vesp Ci fib]
+24.8 +10.6 41 +26 +31 жарко 1017.3 1006.9
16 24.06 ЮЗ 2 35 км 6/5 1500 м
[Sc diur, vesp Ci fib]
+24.3 +10.9 43 +26 +29 жарко 1016.6 1006.2
17 24.06 ЮЗ 2 30 км 8/6 1500 м
[Sc Ci fib]
+24.6 +10.5 41 +26 +27 жарко 1016.4 1006.0
18 24.06 ЮЗ 3 24 км 6/3 1500 м
[Sc Ci fib]
+24.9 +10.7 41 +26 +27 жарко 1016.0 1005.6 +17.5 +26.0
20 24.06 ЮЗ 2 30 км 6/3 2000 м
[Sc Ci fib]
+22.3 +10.4 47 +24 +24 комфорт 1016.1 1005.6
19 24.06 ЮЗ 2 27 км 6/1 1500 м
[Sc Ci fib]
+23.8 +10.5 43 +25 +25 комфорт 1015.6 1005.2
21 24.06 ЮЗ 2 50 км 8/8 2000 м
[]
+20.7 +10.8 53 +23 +23 комфорт 1016.3 1005.8
22 24.06 З 2 60 км 6/4 2000 м
[Sc As trans Ci fib]
+20.4 +11.1 55 +23 +23 комфорт 1016.3 1005.8
23 24.06 З 2 60 км 6/6 2000 м
[Sc Ci fib]
+20.1 +10.8 55 +22 +22 комфорт 1016.1 1005.6
00 25.06 З 3 30 км 4/0
[]
+18.9 +11.0 60 +20 +20 тепло 1016.0 1005.4
02 25.06 ЮЗ 1 30 км 9/0
[Ac trans]
+17.3 +11.6 69 +18 +18 тепло 1016.1 1005.5
01 25.06 З 2 30 км 5/0
[Ac trans Ci fib]
+17.0 +10.8 67 +18 +18 тепло 1016.2 1005.6
03 25.06 ЮЗ 1 25 км 9/9 2000 м
[Sc]
+17.6 +11.8 69 +19 +19 тепло 1015.8 1005.2
04 25.06 ЮЗ 1 25 км 9/9 1500 м
[Sc]
+17.6 +12.1 70 +19 +19 тепло 1015.9 1005.3
05 25.06 ЮЗ 2 40 км 10/10 960 м
[]
+17.7 +12.6 72 +18 +18 тепло 1016.0 1005.4
06 25.06 ЮЗ 2 25 км 9/9 600 м
[Sc]
+18.1 +13.0 72 +19 +19 тепло 1016.2 1005.6 +16.5 +24.9
07 25.06 З 3 30 км 9/9 1080 м
[Sc]
+19.6 +13.8 69 +22 +22 комфорт 1016.3 1005.8

 

Местоположение метеостанции Paris Orly Airport (Франция): широта 48.72 долгота 2.38 высота над уровнем моря 90 м.

В архиве по умолчанию представлена погода в Paris Orly Airport за последнюю неделю. Архивные данные за месяц целиком и за предыдущие месяцы, начиная с января 2011 года, Вы можете получить, выбрав интересующий диапазон дат из раскрывающегося списка и нажав кнопку "Ввод!".

Внимание! Время в таблицах - всемирное. Для получения местного времени необходимо прибавить поправку, которая в Paris Orly Airport равна 1 ч.

Смотрите также архив погоды в соседних городах и на ближайших метеорологических станциях:

Погода в Paris (Франция) (12 км)
Погода в Villacoublay (Франция) (14 км)
Погода в Melun (Франция) (25 км)
Погода в Le Bourget (Франция) (28 км)
Погода в Trappes (Франция) (28 км)
Погода в Charles De Gaulle Airport (Франция) (35 км)
Погода в Cormeilles (Франция) (48 км)
Погода в Creil (Франция) (60 км)
Погода в Chartres (Франция) (70 км)
Погода в Beauvais (Франция) (86 км)

Пояснения к столбцам:

Ветер - указаны скорость ветра в м/с - средняя за 10 мин, порывы в срок и между сроками (в фигурных скобках) и направление, откуда дует ветер: С - северный, СВ - северо-восточный, В - восточный, ЮВ - юго-восточный, Ю - южный, ЮЗ - юго-западный, З - западный, СЗ - северо-западный.
Видимость - горизонтальная дальность видимости в метрах или километрах. При видимости от 1 до 10 км при отсутствии осадков обычно наблюдается дымка, при ухудшении видимости до 1 км и менее - туман. В сухую погоду видимость может ухудшаться дымом, пылью или мглою.
Явления - указаны атмосферные явления, наблюдавшиеся в срок или в последний час перед сроком; фигурными скобками обозначены явления, наблюдавшиеся между сроками (за 1-3 часа до срока); квадратными скобками обозначены град или гололедные отложения с указанием их диаметра в мм.
Облачность - указаны через наклонную черту общая и нижняя облачность в баллах и высота нижней границы облаков в метрах; квадратными скобками обозначены формы облаков: Ci - перистые, Cs - перисто-слоистые, Cc - перисто-кучевые, Ac - высококучевые, As - высокослоистые, Sc - слоисто-кучевые, Ns - слоисто-дождевые, Cu - кучевые, Cb - кучево-дождевые. Подробнее классификацию облаков см. в Атласе облаков (PDF).
T - Температура воздуха - температура, измеренная на высоте 2 м над землей.
Td - Температура точки росы - температура, при понижении до которой содержащийся в воздухе водяной пар достигнет насыщения.
f - Относительная влажность воздуха - влажноcть воздуха, измеренная на высоте 2 м над землей.
Te - Эффективная температура - температура, которую ощущает одетый по сезону человек в тени. Характеристика душности погоды. При расчете учитывается влияние влажности воздуха и скорости ветра на теплоощущения человека.
Tes - Эффективная температура на солнце - температура, которую ощущает человек, с поправкой на солнечный нагрев. Характеристика знойности погоды. Зависит от высоты солнца над горизонтом, облачности и скорости ветра. Ночью, в пасмурную погоду, а также при ветре 12 м/с и более поправка равна нулю.
P - Атмосферное давление - приведенное к уровню моря атмосферное давление.
Po - Атмосферное давление - измеренное на уровне метеостанции атмосферное давление.
Tmin - Минимальная температура - минимум температуры воздуха на высоте 2 м над землей.
Tmax - Максимальная температура - максимум температуры воздуха на высоте 2 м над землей.
R - Количество осадков - Количество выпавших осадков за период времени, мм. При наведении курсора мыши на число - период времени, за который выпало указанное количество осадков.
R24 - Количество осадков - Количество выпавших осадков за 24 часа, мм.
S - Снежный покров - Высота снежного покрова, см. При наведении курсора мыши на число - состояние снежного покрова и степень покрытия местности в баллах.